West Alpine (356) Station Data

Red Flag Warning: No
Fire Weather Zone: 250
SDGE Region: Eastern
Lat/Lon: 32.83/-116.799

Observations

Time Wind Speed/Gust Temp(F) RH Fuel Moist Fuel Temp(F) Dewpt(F) Tmax(F) Tmin(F) Accum Precip 10-min Precip SL Press(mb)
4/26 2:50am 82 0 G 1 53° 72% - - 44° 54.3° 52.1° - - -
4/26 2:40am 135 1 G 2 53° 72% - - 44° 54.3° 52.1° - - -
4/26 2:30am 135 0 G 2 53° 73% - - 44° 54.3° 52.1° - - -
4/26 2:20am 79 1 G 2 52° 73% - - 44° 54.3° 52.1° - - -
4/26 2:10am 287 1 G 3 53° 71% - - 44° 54.3° 52.4° - - -
4/26 2:00am 213 1 G 3 54° 70% - - 44° 54.3° 52.4° - - -
4/26 1:50am 152 1 G 2 54° 70% - - 45° 54.2° 52.4° - - -
4/26 1:40am 150 2 G 3 54° 71% - - 44° 54.2° 52.4° - - -
4/26 1:30am 200 1 G 3 53° 72% - - 44° 54.2° 52.4° - - -
4/26 1:20am 37 0 G 1 53° 72% - - 44° 54.2° 52.4° - - -
4/26 1:10am 20 1 G 3 53° 71% - - 44° 54.2° 52.4° - - -
4/26 1:00am 195 2 G 5 53° 71% - - 44° 54.2° 52.4° - - -
4/26 12:50am 109 1 G 2 54° 70% - - 44° 54.2° 52.4° - - -
4/26 12:40am 146 2 G 5 53° 71% - - 44° 54° 52.4° - - -
4/26 12:30am 119 2 G 4 53° 71% - - 44° 53.9° 52.4° - - -
4/26 12:20am 101 1 G 3 53° 70% - - 44° 53.9° 52.8° - - -
4/26 12:10am 243 1 G 3 54° 70% - - 44° 53.9° 53.1° - - -
4/26 12:00am 285 1 G 2 53° 69% - - 44° 64.8° 52.8° - - -
4/25 11:50pm 147 0 G 2 53° 70% - - 44° 64.8° 52.8° - - -
4/25 11:40pm 74 0 G 2 53° 70% - - 43° 64.8° 52.8° - - -
4/25 11:30pm 124 1 G 3 53° 70% - - 43° 64.8° 52.8° - - -
4/25 11:20pm 117 1 G 3 53° 69% - - 43° 64.8° 52.8° - - -
4/25 11:10pm 118 1 G 3 53° 69% - - 43° 64.8° 52.8° - - -
4/25 11:00pm 122 0 G 2 53° 68% - - 43° 64.8° 52.8° - - -
4/25 10:50pm 113 0 G 1 54° 67% - - 43° 64.8° 52.8° - - -
4/25 10:40pm 124 2 G 3 55° 65% - - 43° 64.8° 52.8° - - -
4/25 10:30pm 134 2 G 4 56° 63% - - 43° 64.8° 52.8° - - -
4/25 10:20pm 165 0 G 1 56° 63% - - 43° 64.8° 52.8° - - -
4/25 10:10pm 162 0 G 2 56° 63% - - 43° 64.8° 52.8° - - -
4/25 10:00pm 195 0 G 1 56° 63% - - 43° 64.8° 52.8° - - -
4/25 9:50pm 220 0 G 1 56° 63% - - 43° 64.8° 52.8° - - -
4/25 9:40pm 107 0 G 1 56° 63% - - 43° 64.8° 52.8° - - -
4/25 9:30pm 225 0 G 1 56° 62% - - 43° 64.8° 52.8° - - -
4/25 9:20pm 231 0 G 1 56° 62% - - 43° 64.8° 52.8° - - -
4/25 9:10pm 224 2 G 3 56° 62% - - 44° 64.8° 52.8° - - -
4/25 9:00pm 230 2 G 4 57° 62% - - 44° 64.8° 52.8° - - -
4/25 8:50pm 242 3 G 4 56° 62% - - 44° 64.8° 52.8° - - -
4/25 8:40pm 245 3 G 4 57° 61% - - 43° 64.8° 52.8° - - -
4/25 8:30pm 243 3 G 5 57° 61% - - 43° 64.8° 52.8° - - -
4/25 8:20pm 220 2 G 3 57° 60% - - 43° 64.8° 52.8° - - -
4/25 8:10pm 238 3 G 5 57° 60% - - 43° 64.8° 52.8° - - -
4/25 8:00pm 216 2 G 4 57° 60% - - 43° 64.8° 52.8° - - -
4/25 7:50pm 218 2 G 4 57° 60% - - 44° 64.8° 52.8° - - -
4/25 7:40pm 252 2 G 5 58° 59% - - 44° 64.8° 52.8° - - -
4/25 7:30pm 250 4 G 7 58° 59% - - 44° 64.8° 52.8° - - -
4/25 7:20pm 262 4 G 7 58° 58% - - 44° 64.8° 52.8° - - -
4/25 7:10pm 261 6 G 9 59° 57% - - 44° 64.8° 52.8° - - -
4/25 7:00pm 256 7 G 10 59° 57% - - 44° 64.8° 52.8° - - -
4/25 6:50pm 260 7 G 10 59° 57% - - 44° 64.8° 52.8° - - -
4/25 6:40pm 264 8 G 12 60° 57% - - 44° 64.8° 52.8° - - -
4/25 6:30pm 258 6 G 10 60° 57% - - 45° 64.8° 52.8° - - -
4/25 6:20pm 267 7 G 11 60° 56% - - 45° 64.8° 52.8° - - -
4/25 6:10pm 258 6 G 10 61° 56% - - 45° 64.8° 52.8° - - -
4/25 6:00pm 256 7 G 15 61° 57% - - 46° 64.8° 52.8° - - -
4/25 5:50pm 252 8 G 13 62° 57% - - 46° 64.8° 52.8° - - -
4/25 5:40pm 258 9 G 15 62° 58% - - 47° 64.8° 52.8° - - -
4/25 5:30pm 253 8 G 12 61° 61% - - 48° 64.8° 52.8° - - -
4/25 5:20pm 252 9 G 14 61° 62% - - 48° 64.8° 52.8° - - -
4/25 5:10pm 257 7 G 11 61° 62% - - 48° 64.8° 52.8° - - -
4/25 5:00pm 247 8 G 14 61° 61% - - 48° 64.8° 52.8° - - -
4/25 4:50pm 259 9 G 15 62° 60% - - 48° 64.8° 52.8° - - -
4/25 4:40pm 261 8 G 14 62° 60% - - 48° 64.8° 52.8° - - -
4/25 4:30pm 251 7 G 12 62° 61% - - 48° 64.8° 52.8° - - -
4/25 4:20pm 256 9 G 14 62° 60% - - 48° 64.8° 52.8° - - -
4/25 4:10pm 262 9 G 15 62° 60% - - 48° 64.8° 52.8° - - -
4/25 4:00pm 256 9 G 18 62° 59% - - 48° 64.8° 52.8° - - -
4/25 3:50pm 251 10 G 15 62° 59% - - 48° 64.8° 52.8° - - -
4/25 3:40pm 262 11 G 15 62° 58% - - 48° 64.8° 52.8° - - -
4/25 3:30pm 262 10 G 17 63° 59% - - 48° 64.8° 52.8° - - -
4/25 3:20pm 262 8 G 13 62° 60% - - 48° 64.8° 52.8° - - -
4/25 3:10pm 255 8 G 13 62° 59% - - 48° 64.8° 52.8° - - -
4/25 3:00pm 252 8 G 14 63° 58% - - 48° 64.8° 52.8° - - -
4/25 2:50pm 254 9 G 17 62° 59% - - 48° 64.8° 52.8° - - -
4/25 2:40pm 254 10 G 16 63° 57% - - 48° 64.8° 52.8° - - -
4/25 2:30pm 250 9 G 17 63° 56% - - 47° 64.8° 52.8° - - -
4/25 2:20pm 253 8 G 13 63° 56% - - 47° 64.8° 52.8° - - -
4/25 2:10pm 256 10 G 17 63° 55% - - 47° 64.8° 52.8° - - -
4/25 2:00pm 262 11 G 16 64° 54% - - 47° 64.8° 52.8° - - -
4/25 1:50pm 267 10 G 16 64° 54% - - 47° 64.8° 52.8° - - -
4/25 1:40pm 260 8 G 14 64° 53% - - 47° 64.8° 52.8° - - -
4/25 1:30pm 263 9 G 17 64° 54% - - 47° 64.8° 52.8° - - -
4/25 1:20pm 253 8 G 15 64° 54% - - 47° 64.8° 52.8° - - -
4/25 1:10pm 274 8 G 12 63° 53% - - 46° 64.8° 52.8° - - -
4/25 1:00pm 263 7 G 14 63° 53% - - 46° 64.8° 52.8° - - -
4/25 12:50pm 266 6 G 14 64° 52% - - 46° 64.8° 52.8° - - -
4/25 12:40pm 254 7 G 13 63° 51% - - 45° 64.8° 52.8° - - -
4/25 12:30pm 257 8 G 14 64° 51% - - 46° 64.8° 52.8° - - -
4/25 12:20pm 262 7 G 14 64° 52% - - 46° 64.2° 52.8° - - -
4/25 12:10pm 263 8 G 14 63° 52% - - 46° 64.1° 52.8° - - -
4/25 12:00pm 253 7 G 16 63° 51% - - 45° 63.9° 52.8° - - -
4/25 11:50am 265 8 G 14 63° 52% - - 45° 63.9° 52.8° - - -
4/25 11:40am 262 7 G 13 63° 53% - - 45° 63.2° 52.8° - - -
4/25 11:30am 271 6 G 11 63° 52% - - 45° 63.2° 52.8° - - -
4/25 11:20am 262 7 G 15 62° 54% - - 45° 62.4° 52.8° - - -
4/25 11:10am 262 6 G 14 61° 56% - - 46° 62° 52.8° - - -
4/25 11:00am 268 7 G 13 61° 59% - - 46° 62° 52.8° - - -
4/25 10:50am 253 3 G 11 61° 59% - - 47° 62° 52.8° - - -
4/25 10:40am 271 4 G 10 60° 60% - - 47° 61.2° 52.8° - - -
4/25 10:30am 298 2 G 6 60° 60% - - 46° 61.2° 52.8° - - -
4/25 10:20am 178 2 G 4 60° 63% - - 47° 61.1° 52.8° - - -
4/25 10:10am 247 4 G 8 59° 67% - - 48° 59.2° 52.8° - - -
4/25 10:00am 246 4 G 8 58° 68% - - 47° 58.3° 52.8° - - -
4/25 9:50am 253 5 G 9 58° 68% - - 47° 58.3° 52.8° - - -
4/25 9:40am 239 6 G 10 57° 72% - - 48° 58.3° 52.8° - - -
4/25 9:30am 252 6 G 10 57° 69% - - 48° 58.3° 52.8° - - -
4/25 9:20am 248 4 G 9 58° 68% - - 47° 58.3° 52.8° - - -
4/25 9:10am 251 5 G 8 57° 70% - - 47° 57.3° 52.8° - - -
4/25 9:00am 242 5 G 9 57° 71% - - 48° 57.3° 52.8° - - -
4/25 8:50am 241 7 G 11 57° 71% - - 48° 57.2° 52.8° - - -
4/25 8:40am 236 5 G 10 57° 72% - - 47° 57.1° 52.8° - - -
4/25 8:30am 251 5 G 9 56° 75% - - 48° 56.6° 52.8° - - -
4/25 8:20am 254 4 G 8 55° 77% - - 48° 55.8° 52.8° - - -
4/25 8:10am 260 4 G 7 55° 78% - - 48° 55.5° 52.8° - - -
4/25 8:00am 237 1 G 5 55° 78% - - 49° 55.5° 52.8° - - -
4/25 7:50am 258 2 G 5 55° 78% - - 48° 55.1° 52.8° - - -
4/25 7:40am 200 1 G 4 55° 79% - - 48° 55.1° 52.8° - - -
4/25 7:30am 236 2 G 6 54° 80% - - 48° 54.6° 52.8° - - -
4/25 7:20am 251 2 G 6 54° 81% - - 49° 54.5° 52.8° - - -
4/25 7:10am 90 1 G 3 54° 82% - - 49° 54.4° 52.8° - - -
4/25 7:00am 258 1 G 5 53° 82% - - 48° 54.4° 52.8° - - -
4/25 6:50am 66 1 G 3 53° 83% - - 48° 54.4° 52.8° - - -
4/25 6:40am 245 3 G 7 53° 82% - - 48° 54.4° 52.8° - - -
4/25 6:30am 254 2 G 7 53° 82% - - 48° 54.4° 52.8° - - -
4/25 6:20am 238 3 G 4 53° 82% - - 48° 54.4° 52.8° - - -
4/25 6:10am 253 2 G 5 53° 81% - - 48° 54.4° 52.8° - - -
4/25 6:00am 216 2 G 5 53° 81% - - 48° 54.4° 52.8° - - -
4/25 5:50am 272 2 G 5 53° 81% - - 48° 54.4° 52.8° - - -
4/25 5:40am 225 1 G 3 53° 82% - - 48° 54.4° 52.8° - - -
4/25 5:30am 205 1 G 3 53° 82% - - 48° 54.4° 52.8° - - -
4/25 5:20am 145 1 G 3 53° 81% - - 47° 54.4° 52.8° - - -
4/25 5:10am 173 1 G 5 53° 81% - - 47° 54.4° 52.8° - - -
4/25 5:00am 129 0 G 1 53° 80% - - 47° 54.4° 52.8° - - -
4/25 4:50am 212 1 G 2 53° 79% - - 47° 54.4° 52.9° - - -
4/25 4:40am 235 1 G 3 53° 79% - - 47° 54.4° 52.9° - - -
4/25 4:30am 199 1 G 4 53° 79% - - 47° 54.4° 52.9° - - -
4/25 4:20am 146 1 G 4 53° 79% - - 47° 54.4° 52.9° - - -
4/25 4:10am 175 1 G 4 53° 80% - - 47° 54.4° 52.9° - - -
4/25 4:00am 169 2 G 4 53° 80% - - 47° 54.4° 52.9° - - -
4/25 3:50am 155 3 G 5 53° 80% - - 47° 54.4° 52.9° - - -
4/25 3:40am 193 2 G 5 53° 81% - - 47° 54.4° 53° - - -
4/25 3:30am 178 3 G 7 53° 82% - - 48° 54.4° 53° - - -
4/25 3:20am 185 2 G 6 53° 83% - - 48° 54.4° 53.1° - - -
4/25 3:10am 210 3 G 5 53° 83% - - 48° 54.4° 53.1° - - -
4/25 3:00am 236 3 G 8 53° 83% - - 48° 54.4° 53.2° - - -
4/25 2:50am 197 1 G 5 54° 82% - - 48° 54.4° 53.3° - - -
4/25 2:40am 230 2 G 6 54° 81% - - 48° 54.4° 53.3° - - -
4/25 2:30am 250 4 G 8 54° 80% - - 48° 54.4° 53.3° - - -
4/25 2:20am 213 2 G 5 54° 78% - - 47° 54.4° 53.3° - - -
4/25 2:10am 219 2 G 5 54° 78% - - 47° 54.4° 53.3° - - -
4/25 2:00am 219 2 G 4 54° 77% - - 47° 54.4° 53.3° - - -
4/25 1:50am 234 2 G 6 54° 77% - - 47° 54.4° 53.3° - - -
4/25 1:40am 217 2 G 5 54° 77% - - 47° 54.4° 53.3° - - -
4/25 1:30am 178 1 G 2 54° 77% - - 47° 54.4° 53.3° - - -
4/25 1:20am 237 1 G 5 54° 77% - - 47° 54.3° 53.3° - - -
4/25 1:10am 246 1 G 3 54° 77% - - 47° 54.3° 53.3° - - -
4/25 1:00am 224 2 G 4 54° 77% - - 47° 54.3° 53.3° - - -
4/25 12:50am 228 1 G 5 54° 79% - - 47° 54.1° 53.3° - - -
4/25 12:40am 226 2 G 6 54° 81% - - 48° 54.1° 53.3° - - -
4/25 12:30am 220 1 G 4 54° 82% - - 48° 54.1° 53.3° - - -
4/25 12:20am 210 2 G 8 54° 82% - - 48° 54.1° 53.3° - - -
4/25 12:10am 203 2 G 6 54° 81% - - 48° 54.1° 53.5° - - -
4/25 12:00am 200 2 G 6 54° 79% - - 48° 66.7° 49.9° - - -
4/24 11:50pm 243 4 G 8 54° 78% - - 48° 66.7° 49.9° - - -
4/24 11:40pm 255 3 G 7 54° 77% - - 47° 66.7° 49.9° - - -
4/24 11:30pm 252 3 G 8 54° 77% - - 47° 66.7° 49.9° - - -
4/24 11:20pm 257 3 G 6 54° 78% - - 47° 66.7° 49.9° - - -
4/24 11:10pm 250 5 G 9 54° 79% - - 47° 66.7° 49.9° - - -
4/24 11:00pm 255 6 G 11 54° 81% - - 48° 66.7° 49.9° - - -
4/24 10:50pm 258 5 G 8 54° 83% - - 49° 66.7° 49.9° - - -
4/24 10:40pm 259 2 G 6 54° 83% - - 49° 66.7° 49.9° - - -
4/24 10:30pm 213 3 G 6 54° 84% - - 49° 66.7° 49.9° - - -
4/24 10:20pm 201 2 G 8 54° 84% - - 49° 66.7° 49.9° - - -
4/24 10:10pm 250 3 G 5 54° 84% - - 49° 66.7° 49.9° - - -
4/24 10:00pm 256 4 G 6 54° 84% - - 49° 66.7° 49.9° - - -
4/24 9:50pm 239 3 G 6 54° 84% - - 49° 66.7° 49.9° - - -
4/24 9:40pm 230 3 G 5 54° 84% - - 49° 66.7° 49.9° - - -
4/24 9:30pm 214 4 G 8 54° 84% - - 49° 66.7° 49.9° - - -
4/24 9:20pm 212 4 G 8 54° 84% - - 50° 66.7° 49.9° - - -
4/24 9:10pm 208 3 G 6 55° 83% - - 50° 66.7° 49.9° - - -
4/24 9:00pm 220 3 G 8 55° 82% - - 49° 66.7° 49.9° - - -
4/24 8:50pm 212 3 G 7 55° 81% - - 49° 66.7° 49.9° - - -
4/24 8:40pm 211 3 G 7 55° 82% - - 49° 66.7° 49.9° - - -
4/24 8:30pm 216 3 G 8 55° 81% - - 49° 66.7° 49.9° - - -
4/24 8:20pm 212 3 G 6 55° 81% - - 49° 66.7° 49.9° - - -
4/24 8:10pm 210 3 G 6 55° 81% - - 49° 66.7° 49.9° - - -
4/24 8:00pm 227 2 G 5 55° 80% - - 49° 66.7° 49.9° - - -
4/24 7:50pm 211 3 G 7 56° 79% - - 49° 66.7° 49.9° - - -
4/24 7:40pm 251 4 G 8 56° 78% - - 50° 66.7° 49.9° - - -
4/24 7:30pm 244 5 G 8 57° 77% - - 50° 66.7° 49.9° - - -
4/24 7:20pm 247 6 G 9 57° 76% - - 50° 66.7° 49.9° - - -
4/24 7:10pm 251 6 G 10 58° 75% - - 50° 66.7° 49.9° - - -
4/24 7:00pm 245 6 G 10 58° 73% - - 49° 66.7° 49.9° - - -
4/24 6:50pm 240 6 G 9 58° 72% - - 49° 66.7° 49.9° - - -
4/24 6:40pm 242 6 G 10 59° 71% - - 50° 66.7° 49.9° - - -
4/24 6:30pm 250 6 G 11 59° 70% - - 50° 66.7° 49.9° - - -
4/24 6:20pm 265 6 G 11 60° 68% - - 49° 66.7° 49.9° - - -
4/24 6:10pm 247 5 G 9 61° 67% - - 50° 66.7° 49.9° - - -
4/24 6:00pm 253 5 G 10 61° 68% - - 50° 66.7° 49.9° - - -